Provo, UT

4:03 PM MDT on September 30, 2016 (GMT -0600)
Provo Municipal

Weather History for KPVU - February, 2013

Change the Weather History Date:

Tuesday, February 26, 2013

  Actual Average Record
Temperature  
Mean Temperature 24 °F -  
Max Temperature 32 °F 39 °F 62 °F (1986)
Min Temperature 15 °F 25 °F 1 °F (1993)
Degree Days  
Heating Degree Days 42    
Moisture  
Dew Point 18 °F    
Average Humidity 85    
Maximum Humidity 100    
Minimum Humidity 60    
Precipitation  
Precipitation 0.00 in - - ()
Sea Level Pressure  
Sea Level Pressure 30.17 in    
Wind  
Wind Speed 5 mph (WNW)    
Max Wind Speed 23 mph    
Max Gust Speed 32 mph    
Visibility 7 miles    
Events Snow    
Averages and records for this station are not official NWS values.
T = Trace of Precipitation, MM = Missing Value Source: NWS Daily Summary

Daily Weather History Graph

Daily Weather History Graph

Search for Another Location

Airport or City:

Trip Planner

Search our weather history database for the weather conditions in past years. The results will help you decide how hot, cold, wet, or windy it might be!

Date:

Astronomy

Feb. 26, 2013 Rise Set
Actual Time 7:04 AM MST 6:15 PM MST
Civil Twilight 6:37 AM MST 6:42 PM MST
Nautical Twilight 6:05 AM MST 7:14 PM MST
Astronomical Twilight 5:34 AM MST 7:45 PM MST
Moon 7:36 PM MST (2/26) 7:08 AM MST (2/26)
Length of Visible Light 12h 05m
Length of Day
11h 11m
Full, 99% of the Moon is Illuminated
Feb 26
Full
Mar 4
Last Quarter
Mar 11
New
Mar 19
First Quarter
Mar 27
Full

Hourly Weather History & Observations

Time (MST) Temp. Windchill Dew Point Humidity Pressure Visibility Wind Dir Wind Speed Gust Speed Precip Events Conditions
12:15 AM 24.8 °F 16.1 °F 23.0 °F 93% 30.08 in 8.0 mi SSE 8.1 mph - N/A   Unknown
12:35 AM 24.8 °F 17.9 °F 23.0 °F 93% 30.08 in 8.0 mi SE 5.8 mph - N/A   Unknown
1:15 AM 23.0 °F - 21.2 °F 93% 30.07 in 5.0 mi Calm Calm - N/A   Unknown
1:35 AM 23.0 °F - 23.0 °F 100% 30.06 in 7.0 mi Calm Calm - N/A   Unknown
1:55 AM 19.4 °F - 15.8 °F 86% 30.07 in 1.0 mi Calm Calm - N/A   Unknown
2:15 AM 15.8 °F - 15.8 °F 100% 30.07 in 0.2 mi Calm Calm - N/A   Unknown
2:35 AM 15.8 °F 8.6 °F 15.8 °F 100% 30.07 in 0.8 mi SW 4.6 mph - N/A   Unknown
2:55 AM 15.8 °F 10.2 °F 14.0 °F 93% 30.07 in 0.5 mi West 3.5 mph - N/A   Unknown
3:15 AM 17.6 °F 8.2 °F 15.8 °F 93% 30.07 in 0.5 mi West 6.9 mph - N/A   Unknown
3:35 AM 17.6 °F 10.7 °F 17.6 °F 100% 30.07 in 0.2 mi NNW 4.6 mph - N/A   Unknown
3:55 AM 19.4 °F 12.8 °F 17.6 °F 93% 30.06 in 0.5 mi WNW 4.6 mph - N/A   Unknown
4:15 AM 19.4 °F 14.3 °F 17.6 °F 93% 30.06 in 3.0 mi North 3.5 mph - N/A   Unknown
4:35 AM 17.6 °F 10.7 °F 17.6 °F 100% 30.07 in 4.0 mi North 4.6 mph - N/A   Unknown
4:55 AM 19.4 °F 12.8 °F 17.6 °F 93% 30.07 in 4.0 mi NW 4.6 mph - N/A   Unknown
5:15 AM 19.4 °F 12.8 °F 19.4 °F 100% 30.07 in 5.0 mi WNW 4.6 mph - N/A   Unknown
5:35 AM 17.6 °F - 15.8 °F 93% 30.08 in 2.5 mi Calm Calm - N/A   Unknown
5:55 AM 17.6 °F - 15.8 °F 93% 30.08 in 1.2 mi Calm Calm - N/A   Unknown
6:15 AM 17.6 °F 12.3 °F 14.0 °F 86% 30.09 in 3.0 mi NW 3.5 mph - N/A   Unknown
6:35 AM 15.8 °F - 10.4 °F 79% 30.09 in 0.5 mi Calm Calm - N/A   Unknown
6:52 AM 15.8 °F - 15.8 °F 100% 30.10 in 1.5 mi Calm Calm - N/A Snow Light Snow
7:51 AM 19.4 °F 14.3 °F 19.4 °F 100% 30.12 in 2.5 mi South 3.5 mph - N/A Snow Light Snow
8:55 AM 24.8 °F 19.1 °F 24.8 °F 100% 30.15 in 3.0 mi Variable 4.6 mph - N/A Snow Light Snow
9:50 AM 26.6 °F 14.7 °F 26.6 °F 100% 30.16 in 6.0 mi West 15.0 mph - N/A   Mostly Cloudy
10:47 AM 30.2 °F 17.8 °F 24.8 °F 80% 30.17 in 6.0 mi West 19.6 mph - N/A   Mostly Cloudy
11:51 AM 28.4 °F 14.4 °F 24.8 °F 86% 30.18 in 10.0 mi WNW 23.0 mph 28.8 mph N/A   Mostly Cloudy
12:49 PM 30.2 °F 16.8 °F 21.2 °F 69% 30.18 in 10.0 mi WNW 23.0 mph - N/A   Scattered Clouds
1:47 PM 32.0 °F - 21.2 °F 64% 30.18 in 15.0 mi WNW 302.7 mph 32.2 mph N/A   Scattered Clouds
2:47 PM 32.0 °F 20.8 °F 23.0 °F 69% 30.20 in 15.0 mi WNW 17.3 mph 23.0 mph N/A   Scattered Clouds
3:55 PM 30.2 °F 21.9 °F 19.4 °F 64% 30.22 in 15.0 mi WNW 9.2 mph - N/A   Scattered Clouds
4:50 PM 30.2 °F 19.3 °F 17.6 °F 60% 30.21 in 15.0 mi NW 15.0 mph - N/A   Scattered Clouds
5:48 PM 26.6 °F 15.7 °F 17.6 °F 69% 30.24 in 15.0 mi WNW 12.7 mph - N/A   Scattered Clouds
7:50 PM 21.2 °F 10.1 °F 15.8 °F 80% 30.29 in 15.0 mi NW 10.4 mph - N/A   Scattered Clouds
8:47 PM 21.2 °F 10.1 °F 15.8 °F 80% 30.32 in 15.0 mi SSW 10.4 mph - N/A   Scattered Clouds
8:55 PM 21.2 °F - 14.0 °F 74% 30.32 in 10.0 mi Calm Calm - N/A   Unknown
9:15 PM 21.2 °F - 15.8 °F 80% 30.32 in 10.0 mi Calm Calm - N/A   Unknown
9:35 PM 21.2 °F 16.4 °F 14.0 °F 74% 30.32 in 10.0 mi WNW 3.5 mph - N/A   Unknown
9:55 PM 24.8 °F 20.5 °F 15.8 °F 69% 30.32 in 10.0 mi West 3.5 mph - N/A   Unknown
10:15 PM 23.0 °F 18.4 °F 14.0 °F 68% 30.32 in 10.0 mi WNW 3.5 mph - N/A   Unknown
10:35 PM 21.2 °F 16.4 °F 12.2 °F 68% 30.32 in 10.0 mi NNW 3.5 mph - N/A   Unknown
10:55 PM 19.4 °F - 14.0 °F 80% 30.32 in 10.0 mi Calm Calm - N/A   Unknown
11:15 PM 17.6 °F 9.3 °F 10.4 °F 73% 30.33 in 10.0 mi SE 5.8 mph - N/A   Unknown
11:35 PM 19.4 °F 14.3 °F 15.8 °F 86% 30.34 in 10.0 mi WNW 3.5 mph - N/A   Unknown
11:55 PM 17.6 °F - 15.8 °F 93% 30.34 in 10.0 mi Calm Calm - N/A   Unknown